This is the latest recevied weather packets stored in our database for station/object TVARMINN. If no packets are shown the sender has not sent any weather packets the latest 10 day(s).
| Time | Temp. | Humidity | Pressure | Rain* | Wind** | Luminosity | Snow |
|---|---|---|---|---|---|---|---|
| 1777873634 | 7.22° C | 63% | 1004.8 hPa | 0 mm | - | - | - |
| 1777872434 | 7.78° C | 59% | 1005.4 hPa | 0 mm | - | - | - |
| 1777871234 | 7.78° C | 65% | 1005.5 hPa | 0 mm | - | - | - |
| 1777870034 | 7.22° C | 60% | 1005.8 hPa | 0 mm | - | - | - |
| 1777868834 | 7.22° C | 64% | 1006 hPa | 0 mm | - | - | - |
| 1777867635 | 6.11° C | 67% | 1006.1 hPa | 0 mm | - | - | - |
| 1777866434 | 5.56° C | 72% | 1006.2 hPa | 0 mm | - | - | - |
| 1777865235 | 5° C | 74% | 1006.3 hPa | 0 mm | - | - | - |
| 1777864034 | 4.44° C | 77% | 1006.5 hPa | 0 mm | - | - | - |
| 1777862834 | 4.44° C | 76% | 1006.7 hPa | 0 mm | - | - | - |
| 1777861634 | 5° C | 73% | 1006.8 hPa | 0 mm | - | - | - |
| 1777860434 | 5° C | 72% | 1006.8 hPa | 0 mm | - | - | - |
| 1777859234 | 5.56° C | 73% | 1007.1 hPa | 0 mm | - | - | - |
| 1777858034 | 6.11° C | 71% | 1007.3 hPa | 0 mm | - | - | - |
| 1777856835 | 6.11° C | 71% | 1007.3 hPa | 0 mm | - | - | - |
| 1777855634 | 6.11° C | 70% | 1007.4 hPa | 0 mm | - | - | - |
| 1777854435 | 6.67° C | 70% | 1007.5 hPa | 0 mm | - | - | - |
| 1777853234 | 7.22° C | 67% | 1007.5 hPa | 0 mm | - | - | - |
| 1777852034 | 7.22° C | 67% | 1007.7 hPa | 0 mm | - | - | - |
| 1777850834 | 7.22° C | 69% | 1007.6 hPa | 0 mm | - | - | - |
| 1777849633 | 7.78° C | 69% | 1007.7 hPa | 0 mm | - | - | - |
| 1777848434 | 7.78° C | 71% | 1007.9 hPa | 0 mm | - | - | - |
| 1777847233 | 7.22° C | 73% | 1007.9 hPa | 0 mm | - | - | - |
| 1777846033 | 6.67° C | 74% | 1008 hPa | 0 mm | - | - | - |
| 1777844833 | 6.67° C | 74% | 1008.2 hPa | 0 mm | - | - | - |
* Rain latest hour (hover to see other rain measurements)
** Current wind speed in m/s (hover to see current wind gust speed)